• In Russia
  • List of Countries
  • For 7 days
  • Water Temperature
  • Satellite Maps
  • Weather Map
  • Weather Widgets
  • user-avatar
    Login

    Hourly Weather Mansa

    Today, 25 February, Sunday

    Time Temperature Precipitation Wind Pressure Humidity
    00:00 +18°C° 0.2 mm 0 mps 658 mmHg 93%
    01:00 +18°C° 0.2 mm 0 mps 658 mmHg 94%
    02:00 +20°C° 0.2 mm 1 mps 658 mmHg 95%
    03:00 +18°C° 0.2 mm 0 mps 658 mmHg 95%
    04:00 +18°C° 0.2 mm 0 mps 658 mmHg 96%
    05:00 +17°C° 0.2 mm 0 mps 658 mmHg 96%
    06:00 +18°C° 0 mm 0 mps 658 mmHg 94%
    07:00 +19°C° 0 mm 0 mps 659 mmHg 92%
    08:00 +20°C° 0 mm 0 mps 659 mmHg 90%
    09:00 +24°C° 0.8 mm 1 mps 660 mmHg 85%
    10:00 +25°C° 0.8 mm 1 mps 660 mmHg 79%
    11:00 +27°C° 0.8 mm 1 mps 660 mmHg 74%
    12:00 +27°C° 0.5 mm 2 mps 659 mmHg 71%
    13:00 +28°C° 0.5 mm 2 mps 659 mmHg 68%
    14:00 +29°C° 0.5 mm 2 mps 658 mmHg 65%
    15:00 +28°C° 0.7 mm 2 mps 658 mmHg 71%
    16:00 +27°C° 0.7 mm 2 mps 657 mmHg 77%
    17:00 +26°C° 0.7 mm 2 mps 657 mmHg 83%
    18:00 +25°C° 0.3 mm 2 mps 657 mmHg 87%
    19:00 +23°C° 0.3 mm 1 mps 657 mmHg 90%
    20:00 +22°C° 0.3 mm 1 mps 657 mmHg 94%
    21:00 +22°C° 0.4 mm 1 mps 657 mmHg 93%
    22:00 +22°C° 0.4 mm 1 mps 657 mmHg 93%
    23:00 +19°C° 0.4 mm 0 mps 658 mmHg 93%

    Tomorrow, 26 February, Monday

    Time Temperature Precipitation Wind Pressure Humidity
    00:00 +19°C° 0.6 mm 0 mps 658 mmHg 93%
    01:00 +19°C° 0.6 mm 0 mps 657 mmHg 93%
    02:00 +19°C° 0.6 mm 0 mps 657 mmHg 93%
    03:00 +19°C° 0.2 mm 0 mps 657 mmHg 93%
    04:00 +18°C° 0.2 mm 0 mps 657 mmHg 94%
    05:00 +18°C° 0.2 mm 0 mps 657 mmHg 94%
    06:00 +21°C° 0.1 mm 1 mps 658 mmHg 93%
    07:00 +21°C° 0.1 mm 1 mps 658 mmHg 93%
    08:00 +22°C° 0.1 mm 1 mps 659 mmHg 92%
    09:00 +23°C° 0.4 mm 1 mps 659 mmHg 87%
    10:00 +24°C° 0.4 mm 2 mps 659 mmHg 83%
    11:00 +25°C° 0.4 mm 2 mps 659 mmHg 78%
    12:00 +26°C° 0.1 mm 2 mps 659 mmHg 73%
    13:00 +27°C° 0.1 mm 2 mps 659 mmHg 68%
    14:00 +28°C° 0.1 mm 3 mps 658 mmHg 62%
    15:00 +28°C° 0 mm 2 mps 658 mmHg 66%
    16:00 +27°C° 0 mm 2 mps 657 mmHg 70%
    17:00 +27°C° 0 mm 2 mps 657 mmHg 73%
    18:00 +25°C° 0.7 mm 1 mps 657 mmHg 79%
    19:00 +23°C° 0.7 mm 1 mps 657 mmHg 86%
    20:00 +22°C° 0.7 mm 1 mps 658 mmHg 92%
    21:00 +21°C° 0.2 mm 1 mps 658 mmHg 92%
    22:00 +21°C° 0.2 mm 1 mps 658 mmHg 93%
    23:00 +21°C° 0.2 mm 1 mps 659 mmHg 93%

    Day after tomorrow, 27 February, Tuesday

    Time Temperature Precipitation Wind Pressure Humidity
    00:00 +20°C° 0.3 mm 1 mps 658 mmHg 94%
    01:00 +20°C° 0.3 mm 1 mps 658 mmHg 94%
    02:00 +20°C° 0.3 mm 1 mps 657 mmHg 94%
    03:00 +20°C° 0.1 mm 1 mps 657 mmHg 94%
    04:00 +19°C° 0.1 mm 1 mps 657 mmHg 95%
    05:00 +19°C° 0.1 mm 1 mps 657 mmHg 95%
    06:00 +20°C° 0 mm 1 mps 658 mmHg 93%
    07:00 +20°C° 0 mm 1 mps 659 mmHg 92%
    08:00 +21°C° 0 mm 1 mps 659 mmHg 91%
    09:00 +21°C° 0.1 mm 2 mps 659 mmHg 86%
    10:00 +24°C° 0.1 mm 2 mps 660 mmHg 81%
    11:00 +25°C° 0.1 mm 2 mps 660 mmHg 76%
    12:00 +26°C° 0.1 mm 2 mps 659 mmHg 72%
    13:00 +27°C° 0.1 mm 2 mps 659 mmHg 67%
    14:00 +28°C° 0.1 mm 2 mps 658 mmHg 62%
    15:00 +27°C° 0 mm 2 mps 658 mmHg 66%
    16:00 +27°C° 0 mm 2 mps 657 mmHg 69%
    17:00 +27°C° 0 mm 1 mps 657 mmHg 73%
    18:00 +25°C° 0 mm 1 mps 657 mmHg 77%
    19:00 +23°C° 0 mm 1 mps 657 mmHg 81%
    20:00 +22°C° 0 mm 1 mps 658 mmHg 85%
    21:00 +21°C° 0.4 mm 1 mps 658 mmHg 87%
    22:00 +21°C° 0.4 mm 1 mps 658 mmHg 90%
    23:00 +20°C° 0.4 mm 1 mps 658 mmHg 92%

    28 February, Wednesday

    Time Temperature Precipitation Wind Pressure Humidity
    00:00 +20°C° 1.8 mm 1 mps 658 mmHg 94%
    01:00 +20°C° 1.8 mm 1 mps 658 mmHg 95%
    02:00 +20°C° 1.8 mm 1 mps 657 mmHg 97%
    03:00 +20°C° 1.7 mm 1 mps 657 mmHg 97%
    04:00 +20°C° 1.7 mm 1 mps 657 mmHg 97%
    05:00 +20°C° 1.7 mm 1 mps 658 mmHg 98%
    06:00 +20°C° 1 mm 1 mps 658 mmHg 96%
    07:00 +21°C° 1 mm 1 mps 659 mmHg 95%
    08:00 +22°C° 1 mm 1 mps 660 mmHg 93%
    09:00 +23°C° 1 mm 1 mps 660 mmHg 90%
    10:00 +24°C° 1 mm 1 mps 660 mmHg 86%
    11:00 +25°C° 1 mm 1 mps 660 mmHg 82%
    12:00 +26°C° 0.9 mm 1 mps 659 mmHg 80%
    13:00 +26°C° 0.9 mm 1 mps 658 mmHg 77%
    14:00 +27°C° 0.9 mm 1 mps 657 mmHg 75%
    15:00 +27°C° 0.2 mm 1 mps 657 mmHg 75%
    16:00 +27°C° 0.2 mm 1 mps 657 mmHg 76%
    17:00 +26°C° 0.2 mm 1 mps 657 mmHg 77%
    18:00 +25°C° 1.2 mm 1 mps 657 mmHg 82%
    19:00 +23°C° 1.2 mm 1 mps 657 mmHg 88%
    20:00 +21°C° 1.2 mm 1 mps 657 mmHg 93%
    21:00 +21°C° 1.6 mm 1 mps 658 mmHg 94%
    22:00 +21°C° 1.6 mm 1 mps 658 mmHg 94%
    23:00 +21°C° 1.6 mm 1 mps 658 mmHg 94%

    1 March, Thursday

    Time Temperature Precipitation Wind Pressure Humidity
    00:00 +21°C° 1.2 mm 1 mps 658 mmHg 94%
    01:00 +19°C° 1.2 mm 2 mps 658 mmHg 95%
    02:00 +19°C° 1.2 mm 2 mps 657 mmHg 95%
    03:00 +19°C° 0.4 mm 2 mps 657 mmHg 96%
    04:00 +19°C° 0.4 mm 2 mps 657 mmHg 96%
    05:00 +19°C° 0.4 mm 1 mps 657 mmHg 97%
    06:00 +19°C° 0.1 mm 2 mps 658 mmHg 96%
    07:00 +19°C° 0.1 mm 2 mps 658 mmHg 95%
    08:00 +20°C° 0.1 mm 2 mps 659 mmHg 95%
    09:00 +21°C° 0.6 mm 2 mps 659 mmHg 92%
    10:00 +23°C° 0.6 mm 2 mps 659 mmHg 89%
    11:00 +24°C° 0.6 mm 2 mps 659 mmHg 87%
    12:00 +23°C° 1.1 mm 2 mps 658 mmHg 89%
    13:00 +23°C° 1.1 mm 2 mps 658 mmHg 91%
    14:00 +23°C° 1.1 mm 1 mps 657 mmHg 93%
    15:00 +22°C° 0.6 mm 1 mps 657 mmHg 93%
    16:00 +22°C° 0.6 mm 1 mps 656 mmHg 94%
    17:00 +22°C° 0.6 mm 1 mps 656 mmHg 94%
    18:00 +21°C° 0.1 mm 1 mps 656 mmHg 95%
    19:00 +21°C° 0.1 mm 1 mps 657 mmHg 96%
    20:00 +20°C° 0.1 mm 1 mps 657 mmHg 96%
    21:00 +20°C° 0 mm 1 mps 657 mmHg 96%
    22:00 +20°C° 0 mm 1 mps 657 mmHg 96%
    23:00 +20°C° 0 mm 1 mps 658 mmHg 96%

    2 March, Friday

    Time Temperature Precipitation Wind Pressure Humidity
    00:00 +19°C° 0.1 mm 1 mps 657 mmHg 97%
    01:00 +19°C° 0.1 mm 1 mps 657 mmHg 97%
    02:00 +19°C° 0.1 mm 1 mps 656 mmHg 98%
    03:00 +19°C° 0.5 mm 1 mps 656 mmHg 98%
    04:00 +19°C° 0.5 mm 1 mps 657 mmHg 98%
    05:00 +19°C° 0.5 mm 1 mps 657 mmHg 98%
    06:00 +20°C° 0 mm 1 mps 657 mmHg 96%
    07:00 +19°C° 0 mm 2 mps 657 mmHg 95%
    08:00 +20°C° 0 mm 2 mps 658 mmHg 93%
    09:00 +21°C° 0.2 mm 2 mps 658 mmHg 88%
    10:00 +24°C° 0.2 mm 2 mps 658 mmHg 83%
    11:00 +25°C° 0.2 mm 3 mps 658 mmHg 77%
    12:00 +25°C° 1 mm 3 mps 657 mmHg 80%
    13:00 +25°C° 1 mm 3 mps 657 mmHg 82%
    14:00 +25°C° 1 mm 3 mps 656 mmHg 85%
    15:00 +25°C° 0.6 mm 2 mps 656 mmHg 85%
    16:00 +25°C° 0.6 mm 2 mps 656 mmHg 85%
    17:00 +25°C° 0.6 mm 2 mps 656 mmHg 85%
    18:00 +23°C° 0.9 mm 2 mps 656 mmHg 88%
    19:00 +22°C° 0.9 mm 1 mps 656 mmHg 91%
    20:00 +21°C° 0.9 mm 1 mps 656 mmHg 95%
    21:00 +20°C° 0.4 mm 1 mps 657 mmHg 95%
    22:00 +20°C° 0.4 mm 1 mps 657 mmHg 95%
    23:00 +20°C° 0.4 mm 1 mps 657 mmHg 95%
    Show more